Weather History for Broomfield, CO

Change the Weather History Date:

Friday, February 8, 2013

  Actual Average Record
Temperature  
Mean Temperature 3 °C -  
Max Temperature 10 °C 6 °C 18 °C (1999)
Min Temperature -3 °C -5 °C -18 °C (2011)
Degree Days  
Heating Degree Days 27    
Moisture  
Dew Point -14 °C    
Average Humidity 34    
Maximum Humidity 51    
Minimum Humidity 12    
Precipitation  
Precipitation 0.00 mm - - ()
Sea Level Pressure  
Sea Level Pressure 1010 hPa    
Wind  
Wind Speed 5 km/h (NNW)    
Max Wind Speed 16 km/h    
Max Gust Speed -    
Visibility 19 kilometers    
Events      
Averages and records for this station are not official NWS values.
T = Trace of Precipitation, MM = Missing Value Source: NWS Daily Summary

Daily Weather History Graph

Daily Weather History Graph

Search for Another Location

Airport:

Trip Planner

Search our weather history database for the weather conditions in past years. The results will help you decide how hot, cold, wet, or windy it might be!

Date:

Astronomy

Feb. 08, 2013 Rise Set
Actual Time 7:01 AM MST 5:28 PM MST
Civil Twilight 6:33 AM MST 5:56 PM MST
Nautical Twilight 6:01 AM MST 6:28 PM MST
Astronomical Twilight 5:29 AM MST 7:00 PM MST
Moon 5:31 AM MST (2/8) 4:05 PM MST (2/8)
Length of Visible Light 11h 23m
Length of Day
10h 27m
Waning Crescent, 3% of the Moon is Illuminated
Feb 8
Waning Crescent
Feb 10
New
Feb 17
First Quarter
Feb 25
Full
Mar 4
Last Quarter

Hourly Weather History & Observations

Time (MST) Temp. Windchill Dew Point Humidity Pressure Visibility Wind Dir Wind Speed Gust Speed Precip Events Conditions
12:15 AM 1.0 °C - -15.0 °C 30% 1015.5 hPa 16.1 km Calm Calm - N/A   Clear
12:36 AM 0.0 °C - -13.0 °C 38% 1015.5 hPa 16.1 km Calm Calm - N/A   Clear
12:55 AM -1.0 °C - -13.0 °C 40% 1015.5 hPa 16.1 km Calm Calm - N/A   Clear
1:16 AM 0.0 °C -2.5 °C -15.0 °C 32% 1015.1 hPa 16.1 km NNW 7.4 km/h / 2.1 m/s - N/A   Clear
1:36 AM 0.0 °C -3.1 °C -13.0 °C 38% 1015.1 hPa 16.1 km North 9.3 km/h / 2.6 m/s - N/A   Clear
1:56 AM 0.0 °C -2.5 °C -14.0 °C 35% 1014.8 hPa 16.1 km North 7.4 km/h / 2.1 m/s - N/A   Clear
2:36 AM -1.0 °C -3.7 °C -15.0 °C 34% 1014.4 hPa 16.1 km North 7.4 km/h / 2.1 m/s - N/A   Clear
2:56 AM -1.0 °C -3.0 °C -16.0 °C 32% 1013.8 hPa 16.1 km NE 5.6 km/h / 1.5 m/s - N/A   Clear
3:16 AM -1.0 °C -4.8 °C -13.0 °C 40% 1013.4 hPa 16.1 km North 11.1 km/h / 3.1 m/s - N/A   Clear
3:36 AM -2.0 °C -4.9 °C -12.0 °C 47% 1013.4 hPa 16.1 km NNW 7.4 km/h / 2.1 m/s - N/A   Clear
3:56 AM -3.0 °C - -12.0 °C 51% 1013.4 hPa 16.1 km Calm Calm - N/A   Clear
4:15 AM -1.0 °C -3.0 °C -12.0 °C 44% 1013.4 hPa 16.1 km North 5.6 km/h / 1.5 m/s - N/A   Clear
4:35 AM -2.0 °C -6.0 °C -12.0 °C 47% 1013.4 hPa 16.1 km NNW 11.1 km/h / 3.1 m/s - N/A   Clear
5:46 AM -3.0 °C -5.2 °C -12.0 °C 51% 1012.8 hPa 32.2 km North 5.6 km/h / 1.5 m/s - N/A   Scattered Clouds
6:47 AM -3.0 °C -8.4 °C -12.0 °C 51% 1012.8 hPa 112.6 km NNW 16.7 km/h / 4.6 m/s - N/A   Mostly Cloudy
7:47 AM -2.0 °C -6.8 °C -13.0 °C 43% 1013.1 hPa 112.6 km NNW 14.8 km/h / 4.1 m/s - N/A   Overcast
8:45 AM -2.0 °C - -12.0 °C 47% 1012.8 hPa 80.4 km Calm Calm - N/A   Mostly Cloudy
9:45 AM 1.0 °C -1.4 °C -12.0 °C 38% 1012.4 hPa 80.4 km WNW 7.4 km/h / 2.1 m/s - N/A   Mostly Cloudy
10:47 AM 3.0 °C - -12.0 °C 33% 1012.1 hPa 64.4 km Calm Calm - N/A   Mostly Cloudy
11:46 AM 5.0 °C - -12.0 °C 29% 1010.7 hPa 80.4 km Calm Calm - N/A   Mostly Cloudy
12:55 PM 9.0 °C - -15.0 °C 17% 1009.0 hPa 64.4 km North 9.3 km/h / 2.6 m/s - N/A   Scattered Clouds
1:50 PM 10.0 °C - -19.0 °C 12% 1008.0 hPa 64.4 km North 13.0 km/h / 3.6 m/s - N/A   Partly Cloudy
2:45 PM 10.0 °C - -19.0 °C 12% 1007.0 hPa 80.4 km NNW 9.3 km/h / 2.6 m/s - N/A   Partly Cloudy
3:45 PM 10.0 °C - -17.0 °C 14% 1007.0 hPa 80.4 km North 9.3 km/h / 2.6 m/s - N/A   Partly Cloudy
4:56 PM 8.0 °C 6.1 °C -13.0 °C 22% 1006.3 hPa 80.4 km NNE 11.1 km/h / 3.1 m/s - N/A   Partly Cloudy
5:50 PM 5.0 °C 3.3 °C -12.0 °C 29% 1006.3 hPa 48.3 km NNE 7.4 km/h / 2.1 m/s - N/A   Partly Cloudy
6:50 PM 4.0 °C 1.2 °C -13.0 °C 28% 1006.3 hPa 32.2 km WNW 11.1 km/h / 3.1 m/s - N/A   Partly Cloudy
7:45 PM 2.0 °C -0.2 °C -14.0 °C 30% 1006.0 hPa 32.2 km WNW 7.4 km/h / 2.1 m/s - N/A   Partly Cloudy
8:50 PM 0.0 °C - -15.0 °C 32% 1006.0 hPa 32.2 km Calm Calm - N/A   Partly Cloudy
10:16 PM 1.0 °C -2.4 °C -14.0 °C 32% 1005.6 hPa 16.1 km West 11.1 km/h / 3.1 m/s - N/A   Clear
10:36 PM 2.0 °C 0.5 °C -14.0 °C 30% 1005.3 hPa 16.1 km West 5.6 km/h / 1.5 m/s - N/A   Clear
10:56 PM 2.0 °C - -14.0 °C 30% 1005.3 hPa 16.1 km Calm Calm - N/A   Clear
11:16 PM 1.0 °C - -13.0 °C 35% 1005.0 hPa 16.1 km Calm Calm - N/A   Clear
11:36 PM 3.0 °C - -14.0 °C 28% 1005.0 hPa 16.1 km Calm Calm - N/A   Clear
11:56 PM 1.0 °C -1.4 °C -13.0 °C 35% 1005.0 hPa 16.1 km North 7.4 km/h / 2.1 m/s - N/A   Clear